Location: Assche-ter-Heiden
(50.9174°N, 4.1574°E)
Time: 09:44:23
(UTC+00:00)

Cosmos 2360 - Pass Details

Date: 20 January 2020
Orbit: 846 x 856 km, 70.8° (Epoch: 18 February)

Event Time Altitude Azimuth Distance (km) Brightness Sun altitude
Rises 05:41:43 0° 216° (SW) 3,415 7.1 -17.5°
Reaches altitude 10° 05:44:10 10° 219° (SW) 2,484 6.4 -17.1°
Maximum altitude 05:49:52 69° 303° (WNW) 915 4.1 -16.2°
Drops below altitude 10° 05:55:36 10° 27° (NNE) 2,499 6.8 -15.4°
Sets 05:58:06 0° 30° (NNE) 3,438 7.6 -15.0°
